User: anonymous   Login
Location: Unspecified
(0.0000°N, 0.0000°E)
Time: 01:28:41
(UTC+00:00)
Language:

Intercosmos 24 - Orbit

View from above orbital plane
View from above orbital plane
View from above satellite
View from above satellite

Ground track
Ground track

The orbit data is extracted from the following two-line orbital elements,

1 20261U 89080A   18174.32282086 -.00000036 +00000-0 -12710-4 0  9994
2 20261 082.5985 129.5827 1202695 320.8871 031.0941 12.55993715312964
Epoch (UTC): 23 June 2018 07:44:51
Eccentricity: 0.1202695
inclination: 82.5985°
perigee height: 499 km
apogee height: 2380 km
right ascension of ascending node: 129.5827°
argument of perigee: 320.8871°
revolutions per day: 12.55993715
mean anomaly at epoch: 31.0941°
orbit number at epoch: 31296

The dashed part of the orbit path shows where the satellite is in the earth's shadow,  

DLR